Location: Emblem
(62.4273°N, 6.4710°E)
Time: 05:02:59
(UTC+01:00)

A-11 Canister half - Pass Details

Date: 05 December 2023
Orbit: 1512 x 1687 km, 47.2° (Epoch: 24 February)

Event Time Altitude Azimuth Distance (km) Brightness Sun altitude
Exits shadow 03:11:08 27° 140° (SE) 2,795 10.3 -41.0°
Drops below altitude 10° 03:16:19 10° 114° (ESE) 3,930 11.4 -40.5°
Sets 03:19:55 0° 105° (ESE) 4,932 12.1 -40.2°
